Retour au catalogue

IUS R/B(1)

ActifHEO
NORAD 25868·ROCKET BODY·🇺🇸 United States

Lancé Jul 23, 1999 depuis Cape Canaveral Space Force Station

Loading…

Prochains Passages (prochaines 24 heures)

TLE

FraisSource: Space-Track

Époque: Sep 14, 2026, 09:01 UTC

1 25868U 99040C   26257.37577444  .00020643  00000-0  68085-3 0  9999
2 25868  28.4634 259.9019 4320649 118.6762 291.3092  6.90882813619807

Suivez IUS R/B(1) en temps réel avec AllMySat

Download on the App Store